Location: Chuathbaluk
(61.5726°N, 159.2454°W)
Time: 16:37:42
(UTC+00:00)

ZACube-1 - Pass Details

Date: 18 January 2021
Orbit: 583 x 666 km, 97.6° (Epoch: 04 March)

Event Time Altitude Azimuth Distance (km) Brightness Sun altitude
Rises 04:13:07 0° 214° (SW) 2,935 ? -14.0°
Reaches altitude 10° 04:15:59 10° 235° (SW) 2,047 ? -14.3°
Maximum altitude 04:18:58 17° 276° (W) 1,632 ? -14.6°
Drops below altitude 10° 04:21:59 10° 318° (NW) 2,085 ? -15.0°
Sets 04:24:58 0° 339° (NNW) 3,013 ? -15.3°
